Showing default

OPS 6582 (TRANSIT 5E-5), 959

Orbit data source: Space-Track

OPS 6582 (TRANSIT 5E-5), 959 is a payload satellite owned by USN BuWeps (US) in LEO that was launched on Sun, 13 Dec 1964 UTC via a THOR ABLESTAR launch vehicle from the Air Force Western Test Range (AFWTR). Payload-class satellites include a variety of spacecraft equipped with specific instruments for various scientific and technological missions. These include communications satellites like Starlink; space stations such as the ISS; scientific satellites like the Hubble; Earth observation satellites from companies like Planet Labs, Umbra, and HawkEye 360; GPS; miniature CubeSats for education and research; and military/defense satellites.

Loading next visibility...
Identifier
959, 1964-083C
Orbit
LEO
Country
Flag of USUS
Related business
Manufacturer
APL
Mission
Spacecraft
Bus & Motor
TRANSIT 5, Unknown motor
Mass
77 kg wet, 77 kg dry
Launch date (UTC)
1964-12-13 (61 years ago)
Launch vehicle
THOR ABLESTAR
Launch site
Air Force Western Test Range (AFWTR)
Object type
Payload
Rocket body
Debris
Shape & HBR
Unknown
Radar Cross Section
Large (>1 m²)

Expand to show TLE details & history
Last TLE update: 23 hours ago

TLE from 23 hours ago
0 OPS 6582 (TRANSIT 5E-5)
1 00959U 64083C   26145.12679667  .00000131  00000-0  15593-3 0  9997
2 00959  90.0081 187.3094 0042384  14.5194  39.3342 13.62487052 47070
Epoch: 2026-05-25T03:02Z
TLE epoch observation values (Epoch: 2026-05-25T03:02:35.232Z)
Latitude
54.25781°
Longitude
-101.06765°
Altitude
1,011.457 km
Speed
7.363 km/s
True Right ascension
12h 29m 11s
True Declination
54° 06' 01"
Sunlit
Object was in daylight at epoch
Visualization orbit readout
Latitude
Unknown
Longitude
Unknown
Altitude
Unknown
Speed
Unknown
Apparent Right ascension
Unknown
Apparent Declination
Unknown
Sunlit
N/A
Visualization observer readout
Local Sidereal Time
11:17:17
Azimuth
Unknown
Elevation
Unknown
Doppler factor
Unknown
Orbital elements
Apogee altitude
1,055.071 km
Perigee altitude
992.327 km
Semi-major axis
7,401.836 km
Eccentricity
0.00424
Inclination
90.0081°
RAAN
187.3094°
Arg. of periapsis
14.5194°
True anomaly
39.64331°
Mean anomaly
39.3342°
Eccentric anomaly
39.48863°
Mean motion
3.40827 °/min
Orbital period
105.63 mins
BSTAR
0.00015593
Loading maneuver chart data...
Computing Atmospheric mass density...

Documentation

Showing up to 5 results
|